Powrót do katalogu

SL-14 DEB

AktywnyPO
NORAD 17271·DEBRIS·🇷🇺 Russia

Wystrzelony Dec 18, 1986 z Plesetsk Cosmodrome

Loading…

Następne Przeloty (najbliższe 24 godziny)

TLE

ŚwieżeSource: Space-Track

Epoka: Sep 14, 2026, 10:20 UTC

1 17271U 86101F   26257.43095681  .00000378  00000-0  23503-3 0  9996
2 17271  82.4081 144.9822 0024877 236.8299 299.5929 14.02646114 24415

Śledź SL-14 DEB w czasie rzeczywistym z AllMySat

Download on the App Store